FENGYUN 1C DEB, 29798

Orbit data source: Space-Track

FENGYUN 1C DEB, 29798 is space debris in SSO originally from a launch on Mon, 10 May 1999 UTC launched from the Taiyaun Space Center, China (TSC). Fengyun 1C debris stems from the Chinese weather satellite Fengyun-1C, which was intentionally destroyed by a Chinese anti-satellite missile in 2007. This event dramatically increased the amount of space debris, with thousands of trackable fragments posing hazards to satellites and human spaceflight. The Fengyun 1C debris cloud has become a focal point in discussions about space sustainability and the need for international regulations to prevent the creation of new debris.

Loading next visibility...
Identifier
29798, 1999-025CQ
Orbit
SSO
Country
Flag of CNCN / PRC
Related business
Manufacturer
Unknown
Mission
Spacecraft
Bus & Motor
Unknown
Mass
Unknown
Launch date (UTC)
1999-05-10 (27 years ago)
Launch vehicle
Unknown
Launch site
Taiyaun Space Center, China (TSC)
Object type
Payload
Rocket body
Debris
Shape & HBR
Unknown shape, 0.1 m
Radar Cross Section
Small (<0.1 m²)

Expand to show TLE details & history
Last TLE update: 9 hours ago

TLE from 9 hours ago
0 FENGYUN 1C DEB
1 29798U 99025CQ  26119.46896361  .00001771  00000-0  11739-2 0  9991
2 29798  99.2820 190.4896 0106420 256.5383 118.6726 14.00128383978521
Epoch: 2026-04-29T11:15Z
TLE epoch observation values (Epoch: 2026-04-29T11:15:18.455Z)
Latitude
16.03689°
Longitude
161.55467°
Altitude
933.321 km
Speed
7.367 km/s
True Right ascension
12h 31m 14s
True Declination
15° 56' 53"
Sunlit
Object was in full shadow at epoch
Visualization orbit readout
Latitude
Unknown
Longitude
Unknown
Altitude
Unknown
Speed
Unknown
Apparent Right ascension
Unknown
Apparent Declination
Unknown
Sunlit
N/A
Visualization observer readout
Local Sidereal Time
03:42:10
Azimuth
Unknown
Elevation
Unknown
Doppler factor
Unknown
Orbital elements
Apogee altitude
967.917 km
Perigee altitude
813.21 km
Semi-major axis
7,268.7 km
Eccentricity
0.01064
Inclination
99.282°
RAAN
190.4896°
Arg. of periapsis
256.5383°
True anomaly
119.7357°
Mean anomaly
118.6726°
Eccentric anomaly
119.20483°
Mean motion
3.50234 °/min
Orbital period
102.79 mins
BSTAR
0.0011739
Loading maneuver chart data...
Computing Atmospheric mass density...

Documentation

Showing up to 5 results
|